GFSWCAN_con_3kmhel_132.txt.gz
Helicity
60 12 -18 82 27 19 6 10 28 17 13 -23 8 138 212 170 230 146 111 44 21 123 39 -28 2 -22 33 57 105 36 123 107 154 108 91 86 95 70 61 61 55 22 46 59 48 62 141 136 96 107 136 126 90 88
63 -2 -35 149 36 30 41 48 50 38 -26 2 4 112 171 187 139 63 29 46 32 96 188 221 269 136 172 122 42 44 118 95 113 122 75 85 74 76 46 39 91 120 122 96 118 98 91 155 113 121 113 121 131 155
75 -15 39 90 44 27 56 53 47 48 -18 -3 89 138 148 163 125 94 47 51 55 128 232 180 231 257 166 198 202 97 135 117 149 175 147 142 74 54 52 70 78 73 79 96 69 85 94 144 175 163 150 144 122 99
29 18 92 33 45 48 55 64 41 57 78 158 150 148 178 128 103 101 89 111 69 136 142 142 127 129 113 106 131 149 118 117 97 196 134 99 87 55 106 102 117 122 76 119 107 78 70 76 156 203 210 164 119 80
-13 42 173 53 78 56 76 61 64 41 241 172 116 94 102 125 145 97 125 121 102 58 120 133 89 78 81 78 71 46 43 58 92 112 89 72 113 104 119 134 67 39 103 69 59 80 39 96 127 152 163 122 97 97
-9 70 73 75 67 69 76 53 37 60 55 88 135 107 114 147 146 108 139 136 217 144 162 186 103 80 81 90 93 99 111 117 110 92 115 96 90 93 52 61 116 151 94 81 56 55 67 140 75 79 95 76 78 70
71 181 71 68 83 77 67 46 33 41 73 108 89 76 92 92 101 114 75 115 183 80 143 128 130 107 77 73 67 79 102 144 116 102 89 44 62 105 83 81 95 72 76 67 99 155 143 111 90 87 89 95 87 87
125 52 68 74 93 104 99 71 65 89 70 51 57 55 66 30 -4 73 166 143 143 115 61 106 122 83 137 74 98 133 84 82 126 74 63 62 40 75 58 67 72 77 83 79 70 54 78 88 110 103 94 86 90 87
63 94 126 135 113 88 96 101 67 27 52 41 84 139 160 173 92 114 150 185 120 87 84 95 113 136 116 116 97 108 100 100 83 77 63 60 48 50 46 57 71 69 59 67 47 78 76 99 98 109 94 73 72 81
77 74 76 60 64 68 71 79 94 61 53 101 175 196 212 98 122 187 120 89 98 73 104 89 81 110 80 101 102 89 92 78 78 69 44 66 63 42 34 39 68 66 54 75 61 89 81 78 87 82 67 63 75 79
69 82 79 74 61 44 67 99 125 92 156 152 171 195 164 163 125 104 116 116 88 97 75 63 45 90 107 98 97 93 80 85 75 69 55 39 43 48 29 59 92 77 61 66 77 80 95 81 99 84 73 63 81 84
68 53 48 45 46 47 69 113 133 196 157 161 148 148 149 121 108 117 130 107 99 82 65 50 56 88 141 137 95 77 84 85 78 53 64 42 49 43 42 64 89 76 89 83 81 95 81 83 82 67 65 67 83 93
48 49 43 33 28 53 105 193 249 81 112 211 213 160 138 116 95 83 89 91 63 81 94 105 97 107 104 93 90 79 73 77 42 70 60 54 66 53 48 61 80 81 76 73 132 140 135 117 88 72 92 107 155 184
66 67 64 66 56 53 69 219 226 285 303 215 176 168 176 122 94 70 100 80 64 52 66 86 117 115 117 120 78 82 80 56 58 50 47 82 80 45 45 61 92 98 95 112 150 156 143 143 150 164 204 196 204 173
89 77 71 67 62 55 70 133 242 290 280 174 118 133 134 65 68 57 70 64 64 30 78 99 119 95 128 94 85 70 66 64 52 60 67 63 45 29 43 83 147 174 166 167 170 174 166 163 163 182 185 188 184 168
129 125 83 58 48 45 64 103 196 200 216 149 122 89 95 71 72 73 52 73 125 53 69 116 124 111 96 73 70 69 65 66 63 68 55 51 50 41 58 88 108 146 175 162 134 143 154 144 133 130 147 153 146 148
188 163 39 46 61 82 108 107 230 201 189 179 141 144 166 154 98 79 59 64 111 93 128 140 123 120 88 83 74 95 89 80 47 65 61 52 39 34 44 64 74 96 144 144 124 109 116 135 153 129 109 113 118 131
113 33 13 8 58 131 84 166 202 191 163 181 142 132 86 113 80 82 88 72 97 108 142 143 107 125 92 75 76 73 82 88 99 72 60 39 37 34 38 51 60 78 94 110 116 132 132 146 124 100 108 109 125 124
56 23 0 -22 127 156 148 124 131 156 151 130 95 84 84 72 89 86 121 126 122 102 126 128 102 103 95 83 97 102 97 83 61 54 39 36 41 41 48 57 72 85 97 96 103 96 91 87 86 100 111 94 97 102
88 83 59 56 110 99 85 93 99 107 98 101 85 95 92 84 82 92 135 146 138 99 135 119 106 129 126 173 157 105 82 47 24 29 36 32 28 34 41 40 51 71 79 86 86 105 102 88 96 135 132 95 107 120
37 93 77 85 81 66 95 98 80 83 74 88 94 76 99 95 103 80 86 131 113 122 117 122 109 97 95 88 91 75 73 80 62 74 57 39 23 49 42 53 91 52 68 71 85 88 100 86 110 151 166 120 147 190
39 87 28 66 58 60 61 98 71 88 82 79 88 90 106 96 95 104 99 75 75 109 102 98 92 103 62 77 82 77 54 51 37 36 50 27 37 42 45 58 48 54 70 94 89 108 85 108 163 183 158 148 163 200
60 33 16 17 10 24 44 103 57 97 79 83 83 87 95 100 82 90 105 68 48 66 79 74 73 74 70 53 56 62 64 58 66 64 76 80 79 75 73 66 77 93 94 106 108 122 114 170 208 196 157 153 163 208
-35 -23 -19 -14 0 5 35 48 56 41 81 97 74 81 90 89 78 77 71 80 67 62 76 93 92 65 45 62 72 64 92 87 71 101 113 81 81 96 97 114 124 128 127 134 128 140 163 178 173 156 163 147 147 171
-4 -4 -24 -16 -10 -3 13 24 34 34 29 37 35 48 63 83 76 74 61 57 59 55 66 87 86 87 86 68 68 74 104 127 116 87 100 113 108 97 103 107 116 115 110 111 112 136 134 155 144 159 141 143 143 182
15 0 -12 -20 -11 6 14 21 25 23 31 37 37 51 66 62 51 56 57 60 66 71 74 86 100 112 98 116 95 59 63 101 109 114 121 138 127 108 91 78 77 103 133 116 114 128 143 119 147 167 160 215 244 258
10 5 -8 -10 0 14 26 38 44 36 31 27 27 27 38 47 45 61 51 75 72 74 74 73 82 92 90 68 76 83 91 129 169 147 121 125 141 169 207 177 181 120 124 124 108 106 115 145 170 206 241 275 250 220
30 17 17 10 22 27 28 31 32 38 41 38 15 28 47 66 57 52 52 45 44 42 50 60 73 86 97 94 80 76 84 85 95 95 103 136 152 165 190 204 212 236 220 186 170 170 188 236 254 250 243 237 263 269
20 21 26 22 24 23 23 32 41 41 43 41 51 48 44 45 43 44 41 40 35 28 20 28 41 42 48 54 64 75 69 67 42 37 90 106 132 165 161 159 166 172 192 251 298 267 267 243 217 206 206 194 188 197
-9 -2 17 16 17 13 30 48 33 33 38 36 31 22 20 31 49 61 62 68 77 77 74 73 63 53 54 60 81 105 121 132 129 142 109 145 137 150 148 149 145 143 143 164 181 183 193 178 155 122 121 129 139 146
0 1 10 12 8 44 47 34 25 25 34 55 66 60 99 71 61 94 114 111 99 84 76 97 127 161 166 190 139 122 157 185 189 204 217 206 195 176 161 143 120 105 102 104 109 114 122 122 125 141 150 153 152 143
-14 -10 -16 -20 2 54 43 41 59 60 68 45 55 92 76 50 53 68 130 194 140 148 203 186 156 185 194 198 217 233 206 172 169 170 180 179 172 154 134 117 110 108 114 113 96 91 104 116 118 126 131 142 137 132
-11 -9 2 7 2 -14 -37 -25 -27 -34 -43 -41 40 62 80 92 123 87 94 133 149 137 141 142 144 157 174 181 189 207 230 228 234 215 195 168 142 121 109 106 99 89 90 97 105 108 124 131 124 124 120 116 117 116

GFSWCAN_con_3kmhel_135.txt.gz
Helicity
63 68 49 24 -51 61 26 9 21 34 20 63 31 49 115 114 189 151 158 66 38 -19 111 210 296 363 344 409 410 223 335 282 218 191 102 95 50 56 82 85 64 88 63 66 67 87 92 165 148 98 95 137 151 148
61 83 68 31 -47 132 25 9 25 30 33 18 54 102 96 105 234 128 108 73 76 153 167 111 188 90 6 41 187 150 177 211 102 131 77 51 70 64 93 17 76 81 31 71 87 89 113 136 117 129 152 220 230 282
38 86 50 29 -5 119 14 37 25 22 -4 5 53 135 166 208 184 68 118 80 160 232 294 252 172 170 129 120 66 81 96 81 77 82 84 90 80 49 64 79 93 111 115 120 119 101 101 121 147 157 179 235 214 201
66 77 20 -11 77 23 55 46 30 34 3 -42 55 252 267 223 132 34 -18 -32 94 198 238 272 136 126 131 150 130 109 109 119 104 154 133 111 129 79 97 92 81 82 110 108 106 65 90 68 124 229 286 233 168 144
66 21 5 60 126 44 67 50 43 40 72 44 177 297 152 179 204 102 43 81 103 47 170 138 129 143 101 93 114 96 88 98 138 181 149 147 131 112 93 105 86 84 90 74 35 33 68 64 170 220 240 185 134 140
21 -6 45 138 23 47 54 34 48 14 165 129 228 235 205 114 58 75 128 184 238 103 269 227 160 149 159 124 96 74 80 113 118 77 102 114 122 97 74 101 116 186 153 65 54 88 70 133 167 164 156 145 165 150
-5 9 78 61 48 55 27 -0 26 79 202 136 186 192 201 91 93 87 90 129 170 104 229 174 152 142 80 118 158 169 162 171 142 149 122 82 88 97 112 108 122 128 115 120 129 211 142 135 134 109 98 88 87 78
45 49 125 69 74 49 12 63 51 60 117 194 154 149 140 107 69 144 166 109 83 75 95 109 125 117 131 95 129 147 159 160 150 96 115 66 88 114 104 96 136 104 123 131 83 65 90 107 99 110 130 134 135 144
4 223 78 75 59 48 40 40 53 59 178 146 154 186 193 169 147 141 180 166 104 48 88 88 110 104 89 102 123 161 122 103 105 106 94 66 75 73 84 99 109 120 70 69 58 96 93 122 151 153 158 126 141 131
214 73 71 58 83 52 73 63 74 85 79 128 155 207 147 104 114 152 96 85 71 67 80 111 108 108 68 96 99 93 108 82 84 71 59 81 73 48 68 65 104 108 93 54 123 95 112 135 147 163 119 108 117 125
70 102 100 103 107 90 71 56 83 70 122 144 176 179 185 122 95 90 94 97 84 89 69 69 91 111 129 83 95 87 69 81 77 79 78 65 72 51 55 108 105 103 116 76 74 101 150 151 172 152 119 112 135 126
66 46 38 50 63 62 74 82 90 150 117 136 141 184 135 111 115 96 125 111 99 76 61 53 89 109 135 116 77 81 72 80 66 69 87 81 41 31 61 108 114 122 109 106 129 128 150 165 176 160 131 120 138 132
56 59 64 59 88 106 107 155 198 117 132 207 221 154 165 110 104 102 119 120 71 73 75 79 103 97 97 91 85 81 83 76 61 88 69 49 43 51 71 107 119 113 103 99 114 121 141 154 144 128 113 132 174 178
43 32 39 65 70 105 184 211 192 208 299 183 155 152 161 134 80 50 109 85 67 46 108 88 119 96 109 124 85 98 78 74 83 69 56 49 55 64 61 90 145 120 129 147 168 189 201 192 145 121 158 168 203 193
47 41 28 29 85 170 215 188 203 221 222 134 147 129 88 37 58 42 66 75 104 51 86 99 102 87 132 101 86 69 83 70 57 55 53 36 37 54 73 93 135 136 134 138 148 159 177 201 210 199 179 167 168 164
64 75 46 33 80 109 137 255 203 160 133 119 125 103 88 51 40 29 39 81 124 39 78 94 102 98 91 62 85 80 70 61 49 60 59 54 70 62 71 92 119 127 144 155 150 130 145 166 184 187 174 152 140 130
117 99 13 41 54 67 97 146 220 195 111 73 99 103 89 96 54 32 34 98 112 52 104 103 105 103 87 103 85 99 81 57 62 63 72 60 48 47 53 70 82 107 138 145 151 142 138 153 183 187 176 139 138 123
48 -42 -23 4 48 88 193 148 141 107 107 110 94 113 79 72 64 72 70 108 105 113 100 93 69 116 105 92 79 70 87 111 81 64 59 54 49 42 38 50 63 77 105 117 126 133 154 162 151 134 147 138 150 140
3 9 63 108 129 153 202 183 153 135 125 98 82 77 69 65 77 85 79 96 104 103 78 99 101 111 91 97 87 100 87 71 61 63 57 55 42 44 56 57 61 71 88 99 101 95 105 114 116 138 143 138 138 128
3 34 108 181 167 123 105 125 139 135 124 107 86 81 75 79 80 107 129 135 122 124 107 109 98 127 149 184 160 126 110 49 38 27 33 35 29 34 42 40 55 77 81 75 65 87 95 77 65 145 129 103 130 111
43 79 94 73 88 70 64 80 80 83 79 92 85 77 104 88 77 102 167 175 122 102 112 120 108 85 92 118 122 82 107 70 65 51 38 39 15 40 35 60 69 57 66 66 81 89 85 69 80 169 125 85 90 111
16 57 49 71 52 49 53 93 64 65 79 96 95 65 96 110 91 81 112 130 125 128 102 102 107 76 80 84 81 74 76 61 76 83 76 38 40 35 48 56 51 42 64 71 91 88 106 106 150 175 172 175 216 228
59 2 15 26 8 28 56 105 64 76 76 86 101 106 103 95 83 88 101 103 91 77 88 95 83 61 41 30 63 118 132 78 91 118 97 83 98 96 94 91 83 99 102 107 110 126 133 140 183 212 189 213 223 229
-15 -40 -36 -21 -4 8 39 50 65 78 86 83 72 85 98 108 101 95 93 90 75 80 94 122 117 52 70 89 84 121 159 74 93 124 155 109 132 127 114 102 110 120 121 139 150 158 169 185 187 172 168 199 202 187
-18 -26 -38 -25 -21 5 20 28 41 42 49 68 66 67 76 79 80 77 73 70 77 91 97 110 129 129 88 74 75 93 136 157 106 135 151 133 101 98 100 95 107 127 145 149 161 170 158 145 144 178 172 162 168 218
-1 -24 -30 -41 -28 -5 13 20 20 16 32 37 42 54 70 70 72 65 63 78 71 61 65 93 125 104 129 122 100 101 116 128 109 99 104 128 138 122 77 69 83 117 152 148 164 167 153 146 191 174 179 264 309 344
-2 -2 -15 -23 -25 -13 9 18 33 36 33 28 30 31 51 50 47 66 66 87 80 78 89 110 129 121 84 65 73 87 100 139 141 112 116 135 142 164 182 180 145 119 140 142 141 133 156 234 261 291 328 308 258 247
11 26 13 4 11 15 15 33 38 52 68 63 25 42 45 57 60 54 44 47 45 44 45 57 71 85 87 80 67 72 96 106 114 97 94 122 162 179 202 210 211 246 230 229 201 212 231 239 252 263 292 305 290 222
28 25 28 23 15 17 25 36 36 36 42 39 40 39 36 38 44 39 36 30 23 20 18 25 32 43 60 79 101 105 84 64 46 63 91 91 107 139 159 183 199 220 234 269 297 274 274 248 235 237 241 239 224 210
7 7 3 2 3 11 29 37 25 22 31 27 19 25 33 45 56 77 90 100 112 91 80 79 73 53 54 70 88 112 130 122 113 98 136 124 123 130 137 149 158 165 170 195 209 207 217 209 201 186 176 179 184 187
10 8 16 13 14 38 31 21 8 12 12 23 39 54 84 62 65 85 96 111 124 138 92 127 140 156 191 202 119 134 164 190 207 257 262 224 189 160 135 123 114 116 131 145 145 147 153 150 144 159 169 171 167 158
12 4 -3 -3 -9 -16 -8 -12 1 8 35 37 37 88 66 44 52 64 133 199 185 189 222 181 176 193 211 245 272 242 210 192 196 196 205 198 188 170 161 147 137 132 130 125 111 108 127 139 139 141 137 134 125 120
10 3 1 12 6 -10 -32 -28 -35 -35 -20 -14 61 89 80 83 81 72 86 126 135 126 130 142 150 163 179 202 220 239 253 246 254 231 210 190 169 151 134 124 122 121 124 123 125 124 134 137 120 114 108 103 99 99

GFSWCAN_con_3kmhel_138.txt.gz
Helicity
65 62 70 61 29 29 42 47 38 22 5 26 20 38 49 51 72 80 93 45 76 36 50 127 130 202 246 244 213 305 414 355 270 215 124 126 143 103 70 61 85 96 75 72 81 43 13 150 130 98 71 79 149 131
60 72 61 52 23 23 48 68 34 24 37 49 48 30 40 41 48 74 76 64 38 26 28 104 133 218 292 366 354 419 299 309 249 256 182 134 105 96 51 94 129 85 49 50 43 48 74 116 79 117 123 178 152 165
65 66 66 46 33 25 -23 78 49 31 23 20 21 28 54 75 48 52 60 103 124 206 249 200 133 151 134 209 220 399 354 161 177 145 138 106 121 60 16 54 70 63 61 41 69 71 102 131 137 134 145 168 191 235
68 54 76 55 31 -12 53 69 35 30 37 20 25 63 80 55 103 89 96 90 181 175 173 183 242 127 21 -25 9 49 132 130 127 137 110 102 74 62 56 45 53 36 90 89 72 74 112 107 137 203 194 194 207 217
61 49 80 19 26 54 69 -1 22 28 46 30 63 111 105 164 145 99 45 196 169 90 260 209 165 152 64 83 53 60 99 103 106 131 102 54 76 73 94 88 95 64 64 55 20 43 90 81 159 202 185 147 133 159
46 62 44 3 61 88 10 37 30 5 66 42 145 138 217 271 77 95 187 126 109 129 306 265 183 149 90 89 90 96 93 95 95 49 59 95 115 86 82 72 72 70 66 65 50 107 74 124 183 153 163 122 105 110
46 37 24 -8 99 39 55 40 25 29 84 175 177 219 214 182 103 165 134 86 95 124 223 300 203 146 141 142 139 133 117 122 110 113 97 89 135 104 66 47 57 84 87 97 121 199 140 132 138 179 183 158 150 125
41 15 -17 75 96 44 37 17 6 54 139 274 266 92 126 87 111 170 163 131 111 107 151 182 154 139 140 151 151 169 154 160 158 92 104 75 115 94 55 73 91 86 87 86 98 66 64 102 141 139 149 159 162 152
11 13 93 58 15 24 22 -7 43 67 236 236 186 131 148 135 151 173 205 117 56 61 90 98 128 121 129 135 156 163 126 108 121 97 86 80 89 56 19 63 66 61 38 38 66 77 102 125 115 111 115 129 148 144
12 100 53 39 17 37 33 38 51 178 310 221 195 155 245 212 189 149 124 99 93 101 88 112 133 116 104 142 122 99 99 78 74 90 83 74 64 54 17 57 65 24 61 102 123 91 102 114 114 106 105 118 145 143
117 25 37 24 50 26 19 36 55 254 276 222 175 147 188 171 109 93 136 123 96 112 92 100 97 124 122 97 114 88 76 73 74 72 59 67 65 41 29 79 63 43 64 71 74 62 79 132 137 131 111 107 128 134
67 80 35 31 62 62 27 33 134 174 215 201 144 154 135 122 112 108 158 122 101 74 58 73 114 105 121 79 70 86 70 74 52 88 75 63 43 25 49 71 52 53 55 71 73 75 111 148 153 141 114 106 104 101
56 65 75 90 95 95 80 97 109 128 200 225 265 240 152 130 128 140 143 131 97 66 51 90 138 108 98 92 73 73 76 59 64 88 58 40 49 38 67 88 86 63 72 77 65 83 115 129 153 146 120 87 104 105
64 75 67 54 70 112 92 78 114 181 181 162 210 221 167 133 65 74 107 104 82 61 84 95 118 89 106 106 75 83 58 71 82 62 44 43 45 49 61 71 108 73 84 94 93 96 112 137 137 123 138 126 136 120
73 83 104 100 102 164 136 87 120 146 176 132 165 161 111 81 70 90 137 107 117 73 115 114 89 77 113 93 87 73 90 80 52 51 40 46 62 60 72 71 93 89 99 107 105 125 137 141 144 134 105 126 133 145
42 54 64 100 173 231 207 160 160 143 111 100 107 94 99 63 56 52 105 135 136 98 107 102 101 96 100 72 84 71 71 68 56 69 72 62 67 62 64 90 89 78 82 93 93 108 127 139 142 145 153 128 135 138
48 85 71 86 116 123 181 156 160 83 52 89 100 85 57 43 49 43 76 132 78 86 97 111 117 92 79 95 92 83 74 61 48 75 89 79 57 47 54 75 84 91 103 105 104 108 111 136 171 169 158 122 132 122
65 55 74 93 108 113 177 143 80 40 55 112 109 118 86 70 51 46 78 129 75 58 82 87 73 105 94 81 70 63 86 96 82 62 65 60 53 54 55 54 59 82 100 102 108 117 120 136 122 109 135 134 143 140
9 55 82 104 113 124 116 110 81 54 70 79 92 89 62 58 76 89 81 134 96 82 84 91 88 92 88 80 75 71 52 51 50 58 63 59 57 57 66 73 77 78 79 72 78 85 83 87 94 116 128 132 124 124
84 144 169 159 103 137 116 104 107 74 82 75 66 82 74 77 91 119 106 133 128 104 102 89 82 85 109 117 91 73 63 54 47 56 59 52 47 51 52 56 62 72 82 81 85 96 98 93 102 114 112 114 124 113
49 110 115 69 81 75 77 94 92 83 79 85 72 77 87 78 103 122 119 152 124 112 81 93 97 103 111 103 106 93 76 40 39 34 28 23 12 41 45 42 58 70 74 72 78 84 94 89 78 110 111 96 85 102
65 81 57 69 56 64 61 84 64 66 77 88 91 85 101 83 119 160 156 132 111 125 115 107 94 82 104 124 105 85 51 56 71 63 62 42 27 37 53 48 54 50 57 56 66 78 74 85 116 136 118 101 106 123
38 15 21 32 28 51 65 77 74 89 85 97 86 95 109 97 69 127 91 92 106 117 112 111 107 88 86 83 93 115 77 66 94 90 77 81 80 76 87 91 81 77 78 73 79 102 115 123 147 179 167 159 173 192
-3 -39 -26 -12 4 9 49 64 64 61 76 91 90 96 102 107 98 99 86 109 86 76 112 148 116 93 96 105 108 116 113 82 111 136 105 98 94 98 96 88 83 86 78 96 121 137 144 160 193 190 185 186 195 239
-31 -36 -43 -22 -16 15 31 42 57 69 73 74 73 81 90 97 108 92 73 84 103 100 107 113 129 110 85 88 96 109 141 103 94 126 143 110 93 85 94 94 93 100 112 135 142 153 169 177 170 186 195 218 257 251
-2 -41 -35 -49 -21 -6 9 30 27 28 51 65 65 57 67 65 80 80 71 87 85 90 96 99 107 105 134 106 77 83 96 102 112 123 124 111 91 67 65 77 84 87 119 103 141 150 167 165 185 211 198 238 251 271
4 -22 -26 -26 -40 -14 16 25 34 42 44 39 45 69 77 63 50 49 59 87 65 66 69 84 104 96 79 73 76 88 99 124 107 103 100 116 124 124 105 110 98 78 92 117 137 155 197 235 243 244 265 275 269 267
-13 7 12 1 20 13 13 27 35 54 72 64 47 52 45 44 51 65 51 62 56 53 63 74 90 86 69 61 63 82 103 108 119 121 135 162 165 171 173 168 163 177 186 168 173 200 211 213 228 238 246 247 241 212
28 17 28 28 24 24 17 22 30 39 54 42 38 47 47 44 42 32 29 26 25 32 34 28 35 55 84 99 103 95 53 46 66 71 77 65 88 123 133 151 173 188 187 239 278 260 256 236 227 225 224 217 197 195
7 4 12 9 11 13 17 30 20 24 37 37 25 27 33 40 52 72 80 97 100 87 78 83 76 54 47 72 84 113 112 87 63 86 113 95 83 84 119 137 154 169 182 214 230 230 236 220 207 197 193 193 197 199
23 10 17 7 -2 16 14 15 9 8 9 15 17 18 28 37 72 91 97 91 96 106 111 125 131 119 140 120 94 107 120 139 157 186 202 175 131 119 120 128 137 144 146 147 138 134 144 154 154 167 177 179 166 150
15 8 -4 4 9 9 34 2 -5 -6 -1 18 24 61 79 87 76 84 138 152 177 171 171 158 149 145 163 181 198 171 165 165 180 184 188 170 157 141 141 136 126 119 123 124 111 108 130 141 137 137 134 132 123 120
21 13 8 9 7 -6 -12 -18 1 20 58 61 73 79 83 67 53 51 69 106 94 96 119 128 137 152 173 188 187 198 213 220 229 210 198 177 159 147 127 113 108 107 113 109 110 111 128 134 118 112 107 102 98 97

GFSWCAN_con_3kmhel_141.txt.gz
Helicity
70 88 84 78 53 33 45 63 69 59 43 32 32 35 29 40 35 68 34 63 77 76 39 22 24 107 136 103 129 155 234 189 176 138 123 92 22 102 68 85 84 109 56 57 178 117 50 94 119 58 49 49 56 93
75 83 91 79 53 59 58 53 35 33 54 27 10 36 40 36 20 58 55 71 80 61 13 14 78 28 73 73 136 189 109 179 161 159 112 145 125 136 132 65 89 61 77 44 33 12 65 83 35 77 73 60 63 121
65 64 68 79 51 40 39 65 27 36 34 39 45 34 30 27 34 54 76 71 106 47 22 39 62 131 81 129 188 167 174 171 212 223 221 211 183 100 90 67 79 75 65 44 41 28 19 58 122 133 107 84 89 125
78 61 74 84 51 38 29 14 70 37 41 42 39 46 33 27 57 47 41 5 69 124 65 36 85 70 81 118 199 217 252 377 329 316 268 165 158 64 74 35 45 32 45 47 44 28 33 28 113 149 144 128 163 195
66 64 73 75 36 28 18 17 82 49 37 28 8 16 15 60 34 40 15 67 76 140 73 157 126 120 61 59 76 137 88 153 177 213 209 164 134 74 93 71 46 27 21 33 8 16 45 36 143 149 132 122 130 194
54 52 41 44 29 19 29 71 40 26 26 41 29 26 44 -23 59 41 59 27 38 117 161 178 173 194 78 10 42 62 8 99 93 116 96 123 95 77 50 54 35 39 22 27 23 89 76 91 120 98 117 98 91 127
40 47 46 15 34 31 56 42 7 22 31 31 28 40 35 162 111 130 173 143 21 134 230 234 241 178 107 80 68 35 39 54 78 96 108 82 90 65 28 16 20 69 78 94 102 130 115 80 68 93 103 85 94 100
47 36 31 33 19 70 84 38 24 14 36 29 63 77 140 99 66 161 124 -13 63 58 199 186 202 179 112 120 99 77 69 98 111 75 72 48 81 57 25 38 62 83 81 76 84 66 61 108 137 130 129 135 137 137
38 38 24 29 47 80 50 48 28 48 43 139 147 127 158 133 147 95 65 47 44 48 63 148 146 122 121 129 133 125 94 90 106 76 69 53 70 21 10 34 48 39 20 44 80 70 103 139 144 128 143 131 137 119
65 35 33 54 117 51 68 51 34 70 159 182 201 261 214 212 142 124 98 74 82 87 88 128 145 107 122 148 135 117 131 100 64 77 64 46 38 43 18 20 33 15 54 102 107 70 80 104 111 105 114 121 115 112
30 43 68 139 53 64 37 48 55 157 301 197 254 238 201 177 146 164 145 119 95 92 80 100 111 150 189 122 133 109 76 78 47 55 57 43 38 42 39 49 49 32 45 41 35 44 48 80 76 89 95 93 102 107
59 136 62 77 53 38 35 30 119 327 258 160 161 128 225 185 180 130 132 101 79 62 100 104 140 156 173 126 94 91 80 79 58 71 75 41 39 48 41 49 44 35 44 37 31 36 26 51 87 109 111 96 97 99
78 67 56 42 36 30 40 112 379 339 249 207 231 203 162 121 135 102 107 116 96 92 116 141 168 151 133 131 97 81 83 60 58 74 50 24 60 60 56 66 50 33 42 31 15 32 52 68 98 115 108 80 106 106
72 76 78 67 62 65 58 301 236 202 199 211 188 169 122 106 70 84 129 117 75 44 107 125 147 122 112 104 77 87 54 60 80 70 49 40 60 65 76 65 63 34 24 31 34 41 55 74 81 82 112 121 126 102
102 96 100 107 84 84 101 148 190 167 186 193 163 134 103 72 82 127 117 97 106 85 107 127 115 104 122 101 89 68 72 62 40 42 37 73 78 73 79 60 44 30 39 55 49 59 64 85 98 89 75 93 103 112
108 129 127 104 122 103 97 165 148 143 157 141 113 94 105 97 97 150 166 146 141 112 108 78 93 101 83 72 78 71 70 63 57 59 73 91 92 88 80 65 60 50 47 57 60 59 70 75 81 86 105 99 107 129
153 164 125 183 200 91 83 137 121 80 86 144 124 95 74 83 74 101 148 136 143 117 116 152 141 105 89 89 84 65 55 48 46 81 104 83 70 67 63 83 84 79 84 77 72 73 67 77 103 106 111 99 113 118
184 155 149 160 168 191 146 114 49 52 71 130 131 123 93 69 58 79 121 126 107 108 108 124 101 120 90 79 66 57 68 83 90 84 86 87 69 57 52 64 79 90 100 101 95 88 89 97 92 89 108 115 141 142
114 112 96 80 142 158 92 68 44 76 98 107 93 74 71 66 79 84 115 131 63 79 85 88 73 82 75 67 59 73 57 55 54 63 65 62 54 59 66 70 76 100 105 92 92 87 90 95 86 95 108 112 120 124
104 122 76 72 72 85 79 74 58 60 103 104 90 93 74 89 110 81 101 167 109 85 83 75 61 64 72 76 59 53 65 62 62 58 55 52 53 56 59 59 63 73 86 91 94 98 105 112 104 107 110 114 124 114
77 122 86 56 77 45 59 71 72 75 79 113 104 97 96 88 98 97 104 159 100 88 70 74 69 82 93 87 86 65 50 29 38 47 34 31 32 45 56 63 67 71 71 73 80 72 86 81 92 120 126 118 108 119
78 59 25 46 40 49 46 71 51 61 72 78 88 89 116 129 137 136 123 135 112 103 96 78 77 70 75 102 110 88 55 57 59 50 48 31 31 47 61 54 58 54 56 56 63 70 71 86 104 134 143 128 133 142
48 22 26 32 27 47 57 87 77 83 78 80 83 96 92 103 113 112 118 105 98 123 119 101 103 90 87 93 95 106 85 51 53 50 45 53 63 70 72 75 72 67 62 53 59 65 78 101 115 146 168 168 172 192
-6 -26 -19 -6 12 20 53 67 66 68 75 83 80 87 98 83 83 106 91 104 95 102 111 101 66 90 108 113 95 84 85 54 65 100 94 70 68 68 72 75 73 68 56 58 83 100 117 121 135 165 183 212 215 225
-20 -26 -32 -19 -20 13 33 50 65 62 66 76 83 85 90 91 72 94 85 90 95 106 119 115 98 87 75 69 75 83 102 78 80 100 119 98 88 92 94 79 69 77 83 104 112 122 128 145 164 184 209 229 246 258
4 -25 -28 -42 -26 -8 4 30 32 39 70 78 66 72 87 83 95 78 89 87 92 102 109 108 95 94 107 92 70 77 86 88 86 90 99 102 88 69 68 69 64 79 110 85 108 120 129 144 168 210 227 234 262 285
13 -8 -22 -17 -24 -9 16 25 36 51 53 46 55 73 71 69 55 61 62 86 70 71 67 73 81 84 77 69 60 68 81 105 103 99 90 98 104 103 88 81 78 67 84 95 121 136 158 185 209 230 256 249 227 241
6 9 5 4 28 30 20 33 39 56 56 54 54 59 44 35 41 58 63 79 72 65 87 107 110 96 82 77 82 100 121 115 116 102 100 124 132 134 130 118 117 143 147 153 158 173 182 177 186 204 225 242 238 202
37 27 36 46 45 44 34 33 31 38 51 42 33 39 45 59 53 53 52 43 43 52 66 62 74 79 89 88 89 80 60 52 59 63 64 53 63 97 122 133 154 165 172 205 226 209 212 199 193 199 205 204 194 202
4 -2 14 22 21 19 23 38 28 32 42 42 35 38 40 43 49 55 53 70 70 49 39 52 36 59 47 63 65 85 86 68 62 75 71 59 51 79 113 144 158 162 166 189 205 207 220 211 199 192 188 187 195 199
10 -1 5 6 -1 7 8 15 25 27 24 27 38 32 25 19 45 55 60 71 85 88 104 110 108 85 85 90 75 71 67 87 93 104 139 162 143 128 125 127 123 125 133 141 137 137 145 152 146 159 165 169 156 146
4 11 4 -9 0 11 25 7 0 -6 3 15 25 37 45 49 39 50 110 127 145 148 128 116 113 111 130 144 157 148 140 132 149 158 165 152 137 124 119 121 124 124 128 128 119 109 122 132 128 133 133 130 119 113
28 21 10 2 -5 -5 3 12 17 25 50 56 62 68 75 56 47 55 68 99 92 99 124 135 141 147 156 162 163 175 195 186 186 180 173 154 137 132 125 116 112 113 123 114 108 108 123 134 120 111 106 102 99 97

GFSWCAN_con_3kmhel_147.txt.gz
Helicity
-49 36 65 74 90 126 120 105 107 58 30 42 29 29 19 23 59 143 121 87 122 109 48 91 58 48 53 50 82 43 77 88 123 134 151 161 200 105 75 49 62 61 26 72 126 43 -6 103 126 56 52 35 38 43
34 51 111 111 104 93 75 44 27 17 30 35 27 30 3 16 51 108 113 80 136 129 77 77 44 31 58 30 68 158 81 41 72 71 79 125 116 71 55 53 75 57 91 46 64 62 81 67 58 72 50 60 53 52
59 103 99 67 57 29 1 3 8 29 19 23 47 46 6 11 45 89 148 117 102 83 7 37 8 -35 12 -3 102 136 67 58 63 73 62 58 4 46 82 71 58 61 66 59 75 52 53 41 60 63 53 52 78 70
205 157 117 79 44 48 62 41 54 46 62 86 61 45 18 15 11 63 125 113 107 82 14 4 -11 14 5 -16 132 120 26 72 61 92 128 98 67 49 47 49 45 60 88 87 48 20 29 12 37 84 103 116 129 109
107 127 110 65 50 49 56 48 34 39 53 54 47 32 27 9 15 74 109 100 105 90 40 26 33 15 38 55 155 101 1 34 90 84 94 98 92 79 80 69 65 55 55 54 32 35 55 43 65 100 110 104 107 122
92 88 84 79 59 51 48 25 29 30 29 22 35 8 11 12 56 114 83 63 68 82 27 -46 11 35 47 45 102 108 91 94 112 134 140 81 87 108 77 87 61 49 44 38 42 54 54 67 75 86 102 92 85 82
67 77 93 82 64 60 54 40 40 47 19 44 39 36 51 55 130 126 70 66 64 180 60 -15 23 41 41 74 125 118 122 130 106 119 135 122 171 183 165 111 91 72 72 74 75 85 72 36 41 83 93 92 92 88
59 58 76 79 61 51 47 46 41 23 45 54 56 59 41 30 56 14 -6 17 -22 118 105 82 39 37 76 100 112 71 73 101 112 164 191 133 140 143 122 95 100 95 107 108 72 53 50 103 124 125 109 101 101 97
56 60 71 44 27 26 43 45 38 16 69 78 62 56 63 45 26 -13 -29 -16 83 80 137 81 27 62 85 136 79 72 66 115 78 101 124 111 120 108 79 67 64 64 70 78 101 92 91 95 105 100 86 79 100 85
46 50 40 21 16 18 34 65 15 63 89 70 46 31 31 16 35 52 77 97 135 127 124 64 108 105 132 127 104 72 68 87 113 92 73 78 77 73 66 50 32 53 70 76 91 72 70 77 72 65 38 56 69 75
61 54 41 36 54 45 59 40 70 97 90 37 35 29 34 63 117 104 123 82 63 80 89 85 99 144 156 130 104 86 51 50 36 43 49 38 25 54 78 89 97 71 47 56 52 45 48 66 61 56 46 53 62 64
88 46 11 40 42 90 32 64 67 63 35 24 48 84 148 143 177 114 172 148 104 89 90 103 105 126 146 112 71 53 35 31 28 32 42 21 36 59 89 99 71 45 44 69 59 65 60 59 45 42 54 59 56 58
32 16 25 8 78 32 56 22 -11 24 56 114 174 198 174 148 125 116 117 144 83 56 79 102 144 132 112 95 73 40 33 35 32 32 17 21 47 81 76 91 76 38 50 62 58 57 48 36 36 46 53 55 68 70
4 14 72 85 17 37 36 -3 15 70 86 138 246 198 96 145 80 61 101 98 61 36 55 112 145 84 84 99 50 42 36 35 44 33 21 32 75 80 65 68 70 36 28 50 44 31 35 39 47 54 61 67 80 78
79 51 45 28 17 27 64 107 153 206 140 84 196 230 109 72 53 45 55 49 54 56 83 106 98 61 85 63 68 47 40 36 20 18 35 55 108 112 105 77 67 60 57 58 39 35 34 46 60 65 51 56 61 86
43 67 64 43 102 176 202 203 204 148 102 107 86 75 64 47 39 49 74 76 69 72 103 109 78 68 65 60 44 49 53 39 32 29 37 73 116 135 112 83 70 63 63 71 68 56 54 52 59 71 78 67 54 70
69 145 100 106 206 261 211 138 156 103 66 74 69 61 52 73 72 76 105 108 85 61 76 86 82 71 70 68 68 70 63 50 36 37 71 93 103 109 97 89 84 74 79 84 84 78 75 72 89 89 93 77 84 91
87 152 91 270 292 248 187 149 124 75 78 83 64 75 78 100 100 111 135 140 98 76 64 66 44 72 77 60 55 55 49 63 61 66 92 93 87 91 86 86 96 95 102 100 87 78 76 76 87 89 99 102 131 138
63 97 119 241 221 147 127 113 86 61 76 73 71 89 97 100 92 103 126 118 85 71 64 69 65 67 69 53 46 40 46 48 48 57 64 77 75 72 77 85 98 108 105 98 100 104 97 94 95 96 105 105 124 126
47 86 99 85 58 76 81 93 70 83 87 91 85 108 121 114 84 82 115 128 99 101 98 85 76 51 51 55 49 57 55 54 69 68 76 82 77 73 71 68 78 84 93 95 93 88 94 105 106 110 117 123 125 127
55 92 91 46 52 53 44 67 61 58 74 89 88 96 100 73 55 80 89 112 68 67 59 58 45 48 48 58 50 46 43 40 49 57 58 70 61 66 69 66 57 57 60 66 74 76 90 97 98 114 128 134 129 133
60 63 53 64 48 46 34 48 47 44 84 87 98 95 102 87 62 50 66 88 78 77 71 56 48 40 62 84 83 68 58 73 83 77 77 52 58 59 59 58 56 68 71 67 65 69 81 84 84 99 119 122 127 137
25 25 25 33 29 46 44 57 54 57 61 89 94 109 104 86 73 89 90 86 85 105 87 71 77 79 83 91 100 105 86 68 61 52 53 54 51 51 60 74 76 75 76 77 69 76 84 89 93 109 117 124 136 151
2 -15 2 8 18 21 37 53 51 53 60 72 79 89 104 94 87 118 110 94 95 95 93 89 88 98 105 106 106 97 82 55 62 70 60 46 60 72 75 78 80 80 80 82 100 110 111 112 121 123 132 148 145 153
-7 -8 -14 1 -14 3 30 48 58 56 57 70 73 74 73 86 86 90 81 92 101 96 89 77 80 77 68 77 92 88 94 61 65 80 90 75 77 78 85 83 87 94 93 88 102 114 123 123 128 141 151 160 178 188
19 3 -5 -27 -18 1 3 28 32 38 53 72 69 77 82 85 92 74 73 76 95 100 103 93 80 87 91 80 78 76 80 89 83 85 87 93 82 64 65 70 78 96 115 104 103 111 119 124 142 165 183 195 200 203
39 30 10 1 -10 0 21 24 35 44 50 53 64 79 82 88 71 61 60 86 88 91 95 91 82 79 71 78 91 93 96 106 107 105 100 108 113 115 100 93 90 79 74 77 82 93 116 135 158 172 188 184 168 165
54 56 35 28 39 40 30 41 37 37 38 47 57 70 64 55 55 48 48 72 80 74 84 100 116 106 97 89 84 99 135 137 144 133 129 152 149 134 118 101 100 118 117 120 123 134 142 150 157 159 167 178 174 152
15 9 21 34 37 43 43 43 32 40 47 48 48 47 47 53 57 63 76 86 90 76 85 91 104 104 114 117 112 108 98 97 103 111 109 96 74 83 97 100 114 130 146 181 202 175 168 157 159 165 171 171 169 173
17 1 6 0 1 -1 4 20 28 31 36 46 48 47 45 41 39 47 51 56 56 55 60 60 58 69 74 87 90 89 83 81 75 74 72 61 59 85 98 113 125 134 140 162 180 183 197 198 188 170 163 154 155 174
36 44 40 19 2 4 8 15 15 19 29 33 47 45 50 49 51 55 57 60 59 60 65 69 69 70 85 87 85 85 79 83 82 81 105 124 132 127 123 120 110 108 113 120 123 127 136 142 132 147 149 155 147 142
44 58 62 47 33 34 44 41 33 31 35 36 37 52 45 44 26 28 64 80 85 85 92 105 120 131 138 139 137 132 132 122 120 129 147 149 145 134 122 112 107 106 116 128 123 115 120 132 124 126 133 134 125 121
46 57 62 57 41 31 33 36 30 18 34 32 33 43 44 35 26 48 70 90 82 98 128 148 154 151 152 149 149 156 163 163 167 173 175 163 143 127 113 102 102 114 128 123 114 106 126 135 126 118 115 110 108 106